TimeAKDT,TemperatureF,Dew PointF,Humidity,Sea Level PressureIn,VisibilityMPH,Wind Direction,Wind SpeedMPH,Gust SpeedMPH,PrecipitationIn,Events,Conditions,WindDirDegrees,DateUTC
12:53 AM,48.9,46.9,93,29.99,10.0,SE,21.9,31.1,N/A,,Overcast,140,2012-10-09 08:53:00
1:20 AM,48.2,46.4,93,29.99,10.0,SSE,21.9,31.1,N/A,,Overcast,150,2012-10-09 09:20:00
1:30 AM,48.2,46.4,93,29.99,10.0,South,18.4,24.2,N/A,,Overcast,170,2012-10-09 09:30:00
1:53 AM,48.9,46.9,93,29.99,10.0,South,18.4,25.3,N/A,,Overcast,170,2012-10-09 09:53:00
2:53 AM,48.0,46.9,96,29.99,10.0,SSE,19.6,25.3,N/A,,Overcast,160,2012-10-09 10:53:00
3:53 AM,48.9,46.0,90,29.99,10.0,SSE,17.3,25.3,N/A,,Overcast,150,2012-10-09 11:53:00
4:53 AM,48.0,46.0,93,29.99,10.0,SSE,23.0,29.9,N/A,,Mostly Cloudy,160,2012-10-09 12:53:00
4:59 AM,48.2,46.4,93,29.97,10.0,SSE,24.2,32.2,N/A,,Mostly Cloudy,160,2012-10-09 12:59:00
5:53 AM,46.9,46.0,97,29.96,10.0,South,17.3,24.2,N/A,,Mostly Cloudy,170,2012-10-09 13:53:00
6:36 AM,46.4,44.6,93,29.95,10.0,SSE,12.7,-,N/A,,Mostly Cloudy,160,2012-10-09 14:36:00
6:53 AM,46.9,45.0,93,29.95,10.0,SSE,16.1,-,N/A,,Mostly Cloudy,150,2012-10-09 14:53:00
7:06 AM,46.4,44.6,93,29.94,10.0,SSE,12.7,-,N/A,,Partly Cloudy,150,2012-10-09 15:06:00
7:53 AM,46.9,45.0,93,29.94,10.0,SE,13.8,20.7,N/A,,Partly Cloudy,140,2012-10-09 15:53:00
8:53 AM,46.9,44.1,90,29.94,10.0,SE,18.4,-,N/A,,Partly Cloudy,140,2012-10-09 16:53:00
9:53 AM,46.9,43.0,86,29.93,10.0,SSE,15.0,-,N/A,,Partly Cloudy,150,2012-10-09 17:53:00
10:53 AM,51.1,44.1,77,29.91,10.0,Calm,Calm,-,N/A,,Partly Cloudy,0,2012-10-09 18:53:00
11:53 AM,53.1,44.1,71,29.89,10.0,Variable,6.9,-,N/A,,Partly Cloudy,0,2012-10-09 19:53:00
12:53 PM,57.0,45.0,64,29.88,10.0,SE,20.7,28.8,N/A,,Scattered Clouds,130,2012-10-09 20:53:00
1:53 PM,57.9,45.0,62,29.86,10.0,SE,21.9,26.5,N/A,,Scattered Clouds,140,2012-10-09 21:53:00
2:53 PM,59.0,43.0,55,29.84,10.0,SSE,20.7,32.2,N/A,,Scattered Clouds,150,2012-10-09 22:53:00
3:53 PM,59.0,44.1,58,29.81,10.0,SE,18.4,26.5,N/A,,Mostly Cloudy,140,2012-10-09 23:53:00
4:53 PM,55.0,42.1,62,29.80,10.0,ESE,19.6,27.6,N/A,,Mostly Cloudy,120,2012-10-10 00:53:00
5:53 PM,54.0,44.1,69,29.79,10.0,SE,17.3,29.9,N/A,,Clear,140,2012-10-10 01:53:00
6:53 PM,50.0,44.1,80,29.79,10.0,SW,6.9,-,N/A,,Clear,230,2012-10-10 02:53:00
7:53 PM,48.9,44.1,83,29.78,10.0,SSE,11.5,-,N/A,,Clear,160,2012-10-10 03:53:00
8:53 PM,50.0,43.0,77,29.77,10.0,SSE,9.2,-,N/A,,Clear,150,2012-10-10 04:53:00
9:53 PM,51.1,43.0,74,29.79,10.0,SSE,13.8,-,N/A,,Clear,150,2012-10-10 05:53:00
10:53 PM,51.1,42.1,71,29.78,10.0,SSE,8.1,-,N/A,,Clear,150,2012-10-10 06:53:00
11:53 PM,52.0,43.0,71,29.77,10.0,SE,11.5,-,N/A,,Partly Cloudy,130,2012-10-10 07:53:00